CW1793 Weather Reports


Display with metric or nautical units.
time (UTC)temp
F
wind
direction
speed
MPH
gust
MPH
rain 1hr
in
rain 24hr
in
rain mn
in
humidity
%
barometer
mb
20180624031936 68 91 7.0 15.0 0.00 0.00 0.00 45 1000.2
20180624030408 68 142 9.0 11.0 0.00 0.00 0.00 45 1000.1
20180624024903 69 101 7.0 9.0 0.00 0.00 0.00 45 1000.1
20180624023501 70 107 7.0 11.0 0.00 0.00 0.00 43 1000.0
20180624021935 71 108 5.0 9.0 0.00 0.00 0.00 41 999.8
20180624020400 72 112 6.0 10.0 0.00 0.00 0.00 39 999.5
20180624014839 75 105 6.0 10.0 0.00 0.00 0.00 35 999.2
20180624013440 75 71 2.0 6.0 0.00 0.00 0.00 37 999.0
20180624011913 75 96 4.0 9.0 0.00 0.00 0.00 36 999.0
20180624010343 77 112 6.0 11.0 0.00 0.00 0.00 31 998.9
20180624004846 80 67 4.0 9.0 0.00 0.00 0.00 30 998.9
20180624003312 79 92 6.0 13.0 0.00 0.00 0.00 31 998.8
20180624001921 80 82 7.0 11.0 0.00 0.00 0.00 30 998.8
20180624000348 81 68 4.0 13.0 0.00 0.00 0.00 30 999.0
20180623234819 80 355 6.0 13.0 0.00 0.00 0.00 31 999.1
20180623233244 81 79 10.0 15.0 0.00 0.00 0.00 31 999.2
20180623231843 81 117 2.0 9.0 0.00 0.00 0.00 28 999.4
20180623230317 81 86 7.0 11.0 0.00 0.00 0.00 27 999.5
20180623224739 83 57 9.0 13.0 0.00 0.00 0.00 27 999.7
20180623223343 83 71 10.0 17.0 0.00 0.00 0.00 28 999.7
20180623221837 83 83 12.0 17.0 0.00 0.00 0.00 26 999.9
20180623220303 84 105 8.0 14.0 0.00 0.00 0.00 27 1000.1
20180623214725 83 54 6.0 19.0 0.00 0.00 0.00 25 1000.1
20180623213153 83 76 4.0 16.0 0.00 0.00 0.00 28 1000.1
20180623211757 83 97 9.0 19.0 0.00 0.00 0.00 28 1000.1
20180623210221 81 77 11.0 17.0 0.00 0.00 0.00 31 1000.4
20180623204700 78 69 6.0 15.0 0.00 0.00 0.00 32 1000.6
20180623203251 81 85 7.0 12.0 0.00 0.00 0.00 27 1000.8
20180623201719 82 5 2.0 9.0 0.00 0.00 0.00 27 1001.1
20180623200150 85 107 1.0 16.0 0.00 0.00 0.00 27 1001.0
20180623194733 84 80 5.0 18.0 0.00 0.00 0.00 28 1001.2
20180623193159 83 80 2.0 13.0 0.00 0.00 0.00 28 1001.3
20180623191625 82 76 10.0 15.0 0.00 0.00 0.00 29 1001.7
20180623190215 80 342 4.0 12.0 0.00 0.00 0.00 29 1002.1
20180623184636 80 355 4.0 11.0 0.00 0.00 0.00 31 1002.5
20180623183042 82 333 3.0 12.0 0.00 0.00 0.00 30 1002.7
20180623181629 81 65 6.0 11.0 0.00 0.00 0.00 32 1002.9
20180623180051 80 62 1.0 10.0 0.00 0.00 0.00 33 1003.3
20180623174633 80 40 4.0 9.0 0.00 0.00 0.00 31 1003.4
20180623173053 79 281 3.0 7.0 0.00 0.00 0.00 33 1003.6
20180623171508 80 59 4.0 10.0 0.00 0.00 0.00 33 1003.8
20180623170100 78 131 2.0 8.0 0.00 0.00 0.00 34 1004.0
20180623164510 77 90 5.0 10.0 0.00 0.00 0.00 38 1004.3
20180623163108 76 47 1.0 8.0 0.00 0.00 0.00 34 1004.5
20180623161535 74 96 3.0 7.0 0.00 0.00 0.00 39 1004.6
20180623155954 73 221 2.0 4.0 0.00 0.00 0.00 39 1004.9
20180623154546 73 144 2.0 4.0 0.00 0.00 0.00 39 1005.1
20180623153012 71 22 0.0 2.0 0.00 0.00 0.00 43 1005.3
20180623151442 70 303 0.0 8.0 0.00 0.00 0.00 39 1005.4
20180623150037 70 176 0.0 5.0 0.00 0.00 0.00 46 1005.4
20180623144423 70 80 1.0 7.0 0.00 0.00 0.00 47 1005.6
20180623143017 68 129 3.0 8.0 0.00 0.00 0.00 48 1005.5
20180623141440 67 146 2.0 7.0 0.00 0.00 0.00 48 1005.3
20180623135834 65 92 2.0 4.0 0.00 0.00 0.00 63 1005.3
20180623134432 62 90 2.0 4.0 0.00 0.00 0.00 71 1005.6
20180623132854 58 103 0.0 3.0 0.00 0.00 0.00 71 1005.5
20180623131321 59 93 2.0 4.0 0.00 0.00 0.00 71 1005.6
20180623125914 59 175 1.0 3.0 0.00 0.00 0.00 70 1005.5
20180623124335 58 212 2.0 6.0 0.00 0.00 0.00 66 1005.6
20180623122808 56 209 5.0 7.0 0.00 0.00 0.00 68 1005.6
20180623121412 54 225 4.0 6.0 0.00 0.00 0.00 72 1005.8
20180623115843 53 188 0.0 1.0 0.00 0.00 0.00 77 1005.8
20180623114311 52 188 2.0 3.0 0.00 0.00 0.00 80 1005.8
20180623112904 50 187 0.0 0.0 0.00 0.00 0.00 84 1005.8
20180623111324 51 187 0.0 1.0 0.00 0.00 0.00 80 1005.7
20180623105759 54 200 2.0 3.0 0.00 0.00 0.00 75 1005.7
20180623104231 54 227 3.0 5.0 0.00 0.00 0.00 75 1005.7
20180623102832 54 236 4.0 7.0 0.00 0.00 0.00 77 1005.7
20180623101328 54 234 4.0 5.0 0.00 0.00 0.00 78 1005.8
20180623095739 54 232 1.0 4.0 0.00 0.00 0.00 80 1005.9
20180623094159 54 250 0.0 1.0 0.00 0.00 0.00 79 1006.0
20180623092757 54 266 2.0 4.0 0.00 0.00 0.00 78 1006.2
20180623091230 54 265 2.0 5.0 0.00 0.00 0.00 78 1006.1
20180623085701 55 278 4.0 7.0 0.00 0.00 0.00 78 1006.2
20180623084259 54 244 2.0 8.0 0.00 0.00 0.00 78 1006.1
20180623082718 55 263 3.0 6.0 0.00 0.00 0.00 78 1006.0
20180623081143 55 280 4.0 7.0 0.00 0.00 0.00 77 1006.1
20180623075740 55 254 3.0 5.0 0.00 0.00 0.00 76 1006.3
20180623074158 55 234 2.0 6.0 0.00 0.00 0.00 74 1006.6
20180623072617 55 263 3.0 7.0 0.00 0.00 0.00 72 1006.6
20180623071217 56 292 5.0 8.0 0.00 0.00 0.00 70 1006.6
20180623065639 56 300 5.0 8.0 0.00 0.00 0.00 69 1006.6
20180623064102 56 286 5.0 7.0 0.00 0.00 0.00 65 1006.6
20180623062650 57 308 5.0 8.0 0.00 0.00 0.00 61 1006.5
20180623061111 58 285 5.0 8.0 0.00 0.00 0.00 57 1006.4
20180623055550 60 292 4.0 8.0 0.00 0.00 0.00 53 1006.2
20180623054012 61 271 4.0 6.0 0.00 0.00 0.00 51 1006.0
20180623052616 61 289 2.0 4.0 0.00 0.00 0.00 48 1005.9
20180623051050 60 339 1.0 2.0 0.00 0.00 0.00 52 1005.4
20180623045526 64 282 1.0 4.0 0.00 0.00 0.00 46 1005.1
20180623043955 64 266 3.0 4.0 0.00 0.00 0.00 46 1005.1
20180623042546 63 265 4.0 6.0 0.00 0.00 0.00 48 1005.1
20180623041017 61 222 1.0 4.0 0.00 0.00 0.00 50 1004.6
20180623035440 63 96 0.0 4.0 0.00 0.00 0.00 49 1004.4
20180623034036 65 214 2.0 6.0 0.00 0.00 0.00 45 1004.0